Time,TemperatureF,DewpointF,PressureIn,WindDirection,WindDirectionDegrees,WindSpeedMPH,WindSpeedGustMPH,Humidity,HourlyPrecipIn,Conditions,Clouds,dailyrainin,SoftwareType,DateUTC
2013-03-16 00:03:00,43.0,37.0,29.86,North,0,0.0,1.0,79,0.00,,,0.00,,2013-03-16 04:03:00,
2013-03-16 00:13:00,43.0,37.0,29.86,North,0,0.0,1.0,79,0.00,,,0.00,,2013-03-16 04:13:00,
2013-03-16 00:23:00,44.0,37.0,29.86,North,0,0.0,5.0,75,0.00,,,0.00,,2013-03-16 04:23:00,
2013-03-16 00:33:00,47.0,37.0,29.86,North,0,0.0,3.0,69,0.00,,,0.00,,2013-03-16 04:33:00,
2013-03-16 00:43:00,47.0,37.0,29.86,North,0,0.0,3.0,69,0.00,,,0.00,,2013-03-16 04:43:00,
2013-03-16 00:52:00,47.0,37.0,29.86,North,0,0.0,2.0,69,0.00,,,0.00,,2013-03-16 04:52:00,
2013-03-16 01:02:00,47.0,37.0,29.85,North,0,0.0,2.0,69,0.00,,,0.00,,2013-03-16 05:02:00,
2013-03-16 01:12:00,47.0,37.0,29.85,North,0,0.0,2.0,69,0.00,,,0.00,,2013-03-16 05:12:00,
2013-03-16 01:22:00,47.0,38.0,29.85,North,0,0.0,2.0,70,0.00,,,0.00,,2013-03-16 05:22:00,
2013-03-16 01:32:00,46.0,38.0,29.84,North,0,0.0,0.0,73,0.00,,,0.00,,2013-03-16 05:32:00,
2013-03-16 01:42:00,46.0,38.0,29.84,North,0,0.0,0.0,73,0.00,,,0.00,,2013-03-16 05:42:00,
2013-03-16 01:52:00,45.0,38.0,29.84,North,0,0.0,0.0,75,0.00,,,0.00,,2013-03-16 05:52:00,
2013-03-16 02:02:00,44.0,37.0,29.84,North,0,0.0,0.0,77,0.00,,,0.00,,2013-03-16 06:02:00,
2013-03-16 02:12:00,44.0,37.0,29.84,North,0,0.0,0.0,77,0.00,,,0.00,,2013-03-16 06:12:00,
2013-03-16 02:22:00,44.0,37.0,29.84,North,0,0.0,0.0,77,0.00,,,0.00,,2013-03-16 06:22:00,
2013-03-16 02:32:00,43.0,37.0,29.83,North,0,0.0,0.0,80,0.00,,,0.00,,2013-03-16 06:32:00,
2013-03-16 02:42:00,43.0,37.0,29.83,North,0,0.0,0.0,80,0.00,,,0.00,,2013-03-16 06:42:00,
2013-03-16 02:52:00,43.0,38.0,29.83,North,0,0.0,0.0,81,0.00,,,0.00,,2013-03-16 06:52:00,
2013-03-16 03:02:00,43.0,38.0,29.83,North,0,0.0,0.0,82,0.00,,,0.00,,2013-03-16 07:02:00,
2013-03-16 03:12:00,43.0,38.0,29.83,North,0,0.0,0.0,82,0.00,,,0.00,,2013-03-16 07:12:00,
2013-03-16 03:22:00,43.0,38.0,29.82,North,0,0.0,0.0,82,0.00,,,0.00,,2013-03-16 07:22:00,
2013-03-16 03:32:00,43.0,37.0,29.81,North,0,0.0,1.0,80,0.00,,,0.00,,2013-03-16 07:32:00,
2013-03-16 03:42:00,43.0,37.0,29.81,North,0,0.0,1.0,80,0.00,,,0.00,,2013-03-16 07:42:00,
2013-03-16 03:52:00,43.0,37.0,29.81,North,0,0.0,0.0,80,0.00,,,0.00,,2013-03-16 07:52:00,
2013-03-16 04:03:00,43.0,38.0,29.80,North,0,0.0,0.0,82,0.00,,,0.00,,2013-03-16 08:03:00,
2013-03-16 04:12:00,43.0,38.0,29.80,North,0,0.0,0.0,82,0.00,,,0.00,,2013-03-16 08:12:00,
2013-03-16 04:23:00,43.0,38.0,29.80,North,0,0.0,0.0,82,0.00,,,0.00,,2013-03-16 08:23:00,
2013-03-16 04:32:00,42.0,38.0,29.80,North,0,0.0,1.0,84,0.00,,,0.00,,2013-03-16 08:32:00,
2013-03-16 04:42:00,42.0,38.0,29.80,North,0,0.0,1.0,84,0.00,,,0.00,,2013-03-16 08:42:00,
2013-03-16 04:52:00,43.0,39.0,29.79,North,0,0.0,0.0,85,0.00,,,0.00,,2013-03-16 08:52:00,
2013-03-16 05:02:00,43.0,39.0,29.79,North,0,0.0,0.0,85,0.00,,,0.00,,2013-03-16 09:02:00,
2013-03-16 05:12:00,43.0,39.0,29.79,North,0,0.0,0.0,85,0.00,,,0.00,,2013-03-16 09:12:00,
2013-03-16 05:22:00,42.0,38.0,29.79,North,0,0.0,0.0,85,0.00,,,0.00,,2013-03-16 09:22:00,
2013-03-16 05:33:00,42.0,38.0,29.79,North,0,0.0,0.0,86,0.00,,,0.00,,2013-03-16 09:33:00,
2013-03-16 05:42:00,42.0,38.0,29.79,North,0,0.0,0.0,86,0.00,,,0.00,,2013-03-16 09:42:00,
2013-03-16 05:52:00,42.0,38.0,29.79,North,0,0.0,0.0,87,0.00,,,0.00,,2013-03-16 09:52:00,
2013-03-16 06:03:00,42.0,38.0,29.79,North,0,0.0,0.0,87,0.00,,,0.00,,2013-03-16 10:03:00,
2013-03-16 06:12:00,42.0,38.0,29.79,North,0,0.0,0.0,87,0.00,,,0.00,,2013-03-16 10:12:00,
2013-03-16 06:23:00,41.0,38.0,29.80,North,0,0.0,0.0,88,0.00,,,0.00,,2013-03-16 10:23:00,
2013-03-16 06:32:00,41.0,38.0,29.80,North,0,0.0,0.0,88,0.00,,,0.00,,2013-03-16 10:32:00,
2013-03-16 06:42:00,41.0,38.0,29.80,North,0,0.0,0.0,88,0.00,,,0.00,,2013-03-16 10:42:00,
2013-03-16 06:52:00,41.0,38.0,29.80,North,0,0.0,0.0,88,0.00,,,0.00,,2013-03-16 10:52:00,
2013-03-16 07:03:00,42.0,39.0,29.80,North,0,0.0,0.0,89,0.00,,,0.00,,2013-03-16 11:03:00,
2013-03-16 07:12:00,42.0,39.0,29.80,North,0,0.0,0.0,89,0.00,,,0.00,,2013-03-16 11:12:00,
2013-03-16 07:22:00,42.0,39.0,29.80,North,0,0.0,0.0,88,0.00,,,0.00,,2013-03-16 11:22:00,
2013-03-16 07:32:00,42.0,39.0,29.80,North,0,0.0,0.0,88,0.00,,,0.00,,2013-03-16 11:32:00,
2013-03-16 07:43:00,42.0,39.0,29.80,North,0,0.0,0.0,88,0.00,,,0.00,,2013-03-16 11:43:00,
2013-03-16 07:53:00,42.0,39.0,29.80,North,0,0.0,0.0,89,0.00,,,0.00,,2013-03-16 11:53:00,
2013-03-16 08:02:00,43.0,40.0,29.80,North,0,0.0,2.0,89,0.00,,,0.00,,2013-03-16 12:02:00,
2013-03-16 08:12:00,43.0,40.0,29.80,North,0,0.0,2.0,89,0.00,,,0.00,,2013-03-16 12:12:00,
2013-03-16 08:22:00,44.0,41.0,29.79,North,0,0.0,1.0,88,0.00,,,0.00,,2013-03-16 12:22:00,
2013-03-16 08:32:00,45.0,42.0,29.79,North,0,0.0,1.0,88,0.00,,,0.00,,2013-03-16 12:32:00,
2013-03-16 08:43:00,45.0,42.0,29.79,North,0,0.0,1.0,88,0.00,,,0.00,,2013-03-16 12:43:00,
2013-03-16 08:53:00,46.0,42.0,29.80,North,0,0.0,2.0,86,0.00,,,0.00,,2013-03-16 12:53:00,
2013-03-16 09:02:00,49.0,43.0,29.80,North,0,0.0,3.0,80,0.00,,,0.00,,2013-03-16 13:02:00,
2013-03-16 09:12:00,49.0,43.0,29.80,North,0,0.0,3.0,80,0.00,,,0.00,,2013-03-16 13:12:00,
2013-03-16 09:22:00,51.0,45.0,29.80,North,0,0.0,2.0,79,0.00,,,0.00,,2013-03-16 13:22:00,
2013-03-16 09:32:00,51.0,45.0,29.80,North,0,0.0,1.0,80,0.00,,,0.00,,2013-03-16 13:32:00,
2013-03-16 09:42:00,51.0,45.0,29.80,North,0,0.0,1.0,80,0.00,,,0.00,,2013-03-16 13:42:00,
2013-03-16 09:52:00,53.0,46.0,29.80,South,170,1.0,6.0,77,0.00,,,0.00,,2013-03-16 13:52:00,
2013-03-16 10:03:00,53.0,46.0,29.80,South,170,1.0,6.0,77,0.00,,,0.00,,2013-03-16 14:03:00,
2013-03-16 10:12:00,53.0,46.0,29.80,South,170,1.0,6.0,77,0.00,,,0.00,,2013-03-16 14:12:00,
2013-03-16 10:22:00,55.0,46.0,29.79,ESE,112,1.0,4.0,72,0.00,,,0.00,,2013-03-16 14:22:00,
2013-03-16 10:32:00,57.0,47.0,29.78,SE,145,1.0,7.0,69,0.00,,,0.00,,2013-03-16 14:32:00,
2013-03-16 10:42:00,57.0,47.0,29.78,SE,145,1.0,7.0,69,0.00,,,0.00,,2013-03-16 14:42:00,
2013-03-16 10:52:00,58.0,47.0,29.78,SSW,194,1.0,8.0,66,0.00,,,0.00,,2013-03-16 14:52:00,
2013-03-16 11:03:00,58.0,47.0,29.78,SSW,194,1.0,8.0,66,0.00,,,0.00,,2013-03-16 15:03:00,
2013-03-16 11:12:00,58.0,47.0,29.78,SSW,194,1.0,8.0,66,0.00,,,0.00,,2013-03-16 15:12:00,
2013-03-16 11:23:00,61.0,47.0,29.78,SSE,147,2.0,7.0,61,0.00,,,0.00,,2013-03-16 15:23:00,
2013-03-16 11:33:00,62.0,48.0,29.77,SSE,152,1.0,7.0,61,0.00,,,0.00,,2013-03-16 15:33:00,
2013-03-16 11:43:00,62.0,48.0,29.77,SSE,152,1.0,7.0,61,0.00,,,0.00,,2013-03-16 15:43:00,
2013-03-16 11:53:00,64.0,48.0,29.76,SSW,201,3.0,8.0,57,0.00,,,0.00,,2013-03-16 15:53:00,
2013-03-16 12:03:00,65.0,48.0,29.75,South,176,3.0,12.0,54,0.00,,,0.00,,2013-03-16 16:03:00,
2013-03-16 12:12:00,65.0,48.0,29.75,South,176,3.0,12.0,54,0.00,,,0.00,,2013-03-16 16:12:00,
2013-03-16 12:23:00,65.0,47.0,29.75,SSE,149,2.0,8.0,53,0.00,,,0.00,,2013-03-16 16:23:00,
2013-03-16 12:33:00,68.0,48.0,29.73,South,172,5.0,15.0,49,0.00,,,0.00,,2013-03-16 16:33:00,
2013-03-16 12:42:00,68.0,48.0,29.73,South,172,5.0,15.0,49,0.00,,,0.00,,2013-03-16 16:42:00,
2013-03-16 12:53:00,68.0,49.0,29.73,SSE,158,4.0,10.0,50,0.00,,,0.00,,2013-03-16 16:53:00,
2013-03-16 13:03:00,68.0,48.0,29.73,SE,127,3.0,13.0,49,0.00,,,0.00,,2013-03-16 17:03:00,
2013-03-16 13:13:00,68.0,48.0,29.73,SE,127,3.0,13.0,49,0.00,,,0.00,,2013-03-16 17:13:00,
2013-03-16 13:23:00,68.0,49.0,29.73,SSE,157,4.0,10.0,51,0.00,,,0.00,,2013-03-16 17:23:00,
2013-03-16 13:32:00,68.0,50.0,29.72,SE,135,2.0,7.0,52,0.00,,,0.00,,2013-03-16 17:32:00,
2013-03-16 13:42:00,68.0,50.0,29.72,SE,135,2.0,7.0,52,0.00,,,0.00,,2013-03-16 17:42:00,
2013-03-16 13:52:00,70.0,50.0,29.71,SSE,148,4.0,12.0,49,0.00,,,0.00,,2013-03-16 17:52:00,
2013-03-16 14:02:00,72.0,49.0,29.70,SSE,164,2.0,13.0,45,0.00,,,0.00,,2013-03-16 18:02:00,
2013-03-16 14:13:00,72.0,49.0,29.70,SSE,164,2.0,13.0,45,0.00,,,0.00,,2013-03-16 18:13:00,
2013-03-16 14:23:00,72.0,49.0,29.70,South,171,5.0,12.0,45,0.00,,,0.00,,2013-03-16 18:23:00,
2013-03-16 14:33:00,73.0,50.0,29.69,West,277,2.0,13.0,44,0.00,,,0.00,,2013-03-16 18:33:00,
2013-03-16 14:43:00,73.0,50.0,29.69,West,277,2.0,13.0,44,0.00,,,0.00,,2013-03-16 18:43:00,
2013-03-16 14:52:00,74.0,49.0,29.68,SE,139,4.0,13.0,41,0.00,,,0.00,,2013-03-16 18:52:00,
2013-03-16 15:02:00,74.0,49.0,29.68,SE,139,4.0,13.0,41,0.00,,,0.00,,2013-03-16 19:02:00,
2013-03-16 15:12:00,74.0,49.0,29.68,SE,139,4.0,13.0,41,0.00,,,0.00,,2013-03-16 19:12:00,
2013-03-16 15:22:00,75.0,50.0,29.67,ESE,119,2.0,7.0,42,0.00,,,0.00,,2013-03-16 19:22:00,
2013-03-16 15:32:00,75.0,50.0,29.66,SSE,153,1.0,9.0,42,0.00,,,0.00,,2013-03-16 19:32:00,
2013-03-16 15:42:00,75.0,50.0,29.66,SSE,153,1.0,9.0,42,0.00,,,0.00,,2013-03-16 19:42:00,
2013-03-16 15:53:00,75.0,49.0,29.65,NW,311,2.0,11.0,40,0.00,,,0.00,,2013-03-16 19:53:00,
2013-03-16 16:02:00,76.0,51.0,29.65,SSE,164,2.0,14.0,41,0.00,,,0.00,,2013-03-16 20:02:00,
2013-03-16 16:12:00,76.0,51.0,29.65,SSE,164,2.0,14.0,41,0.00,,,0.00,,2013-03-16 20:12:00,
2013-03-16 16:22:00,76.0,50.0,29.63,ESE,112,3.0,9.0,40,0.00,,,0.00,,2013-03-16 20:22:00,
2013-03-16 16:33:00,77.0,49.0,29.63,SW,224,1.0,9.0,38,0.00,,,0.00,,2013-03-16 20:33:00,
2013-03-16 16:42:00,77.0,49.0,29.63,SW,224,1.0,9.0,38,0.00,,,0.00,,2013-03-16 20:42:00,
2013-03-16 16:52:00,77.0,49.0,29.63,SSE,166,2.0,7.0,37,0.00,,,0.00,,2013-03-16 20:52:00,
2013-03-16 17:02:00,77.0,49.0,29.62,SE,146,2.0,9.0,37,0.00,,,0.00,,2013-03-16 21:02:00,
2013-03-16 17:12:00,77.0,49.0,29.62,SE,146,2.0,9.0,37,0.00,,,0.00,,2013-03-16 21:12:00,
2013-03-16 17:22:00,77.0,49.0,29.62,SSE,154,2.0,7.0,37,0.00,,,0.00,,2013-03-16 21:22:00,
2013-03-16 17:33:00,77.0,49.0,29.61,SE,138,2.0,10.0,37,0.00,,,0.00,,2013-03-16 21:33:00,
2013-03-16 17:43:00,77.0,49.0,29.61,SE,138,2.0,10.0,37,0.00,,,0.00,,2013-03-16 21:43:00,
2013-03-16 17:52:00,76.0,49.0,29.60,SSE,157,3.0,7.0,38,0.00,,,0.00,,2013-03-16 21:52:00,
2013-03-16 18:03:00,76.0,49.0,29.60,South,188,4.0,11.0,38,0.00,,,0.00,,2013-03-16 22:03:00,
2013-03-16 18:12:00,76.0,49.0,29.60,South,188,4.0,11.0,38,0.00,,,0.00,,2013-03-16 22:12:00,
2013-03-16 18:23:00,76.0,49.0,29.59,SE,145,4.0,11.0,39,0.00,,,0.00,,2013-03-16 22:23:00,
2013-03-16 18:33:00,75.0,48.0,29.60,SSE,148,1.0,13.0,39,0.00,,,0.00,,2013-03-16 22:33:00,
2013-03-16 18:42:00,75.0,48.0,29.60,SSE,148,1.0,13.0,39,0.00,,,0.00,,2013-03-16 22:42:00,
2013-03-16 18:52:00,75.0,48.0,29.60,ENE,72,1.0,5.0,39,0.00,,,0.00,,2013-03-16 22:52:00,
2013-03-16 19:02:00,74.0,48.0,29.62,South,190,2.0,6.0,40,0.00,,,0.00,,2013-03-16 23:02:00,
2013-03-16 19:13:00,74.0,48.0,29.62,South,190,2.0,6.0,40,0.00,,,0.00,,2013-03-16 23:13:00,
2013-03-16 19:22:00,74.0,49.0,29.62,SSE,160,2.0,6.0,41,0.00,,,0.00,,2013-03-16 23:22:00,
2013-03-16 19:33:00,73.0,48.0,29.62,SE,145,2.0,8.0,41,0.00,,,0.00,,2013-03-16 23:33:00,
2013-03-16 19:42:00,73.0,48.0,29.62,SE,145,2.0,8.0,41,0.00,,,0.00,,2013-03-16 23:42:00,
2013-03-16 19:52:00,72.0,48.0,29.63,North,0,0.0,4.0,42,0.00,,,0.00,,2013-03-16 23:52:00,
2013-03-16 20:02:00,72.0,48.0,29.64,North,0,0.0,5.0,43,0.00,,,0.00,,2013-03-17 00:02:00,
2013-03-16 20:12:00,72.0,48.0,29.64,North,0,0.0,5.0,43,0.00,,,0.00,,2013-03-17 00:12:00,
2013-03-16 20:22:00,72.0,48.0,29.64,North,0,0.0,5.0,43,0.00,,,0.00,,2013-03-17 00:22:00,
2013-03-16 20:33:00,69.0,48.0,29.70,North,0,0.0,3.0,48,0.00,,,0.00,,2013-03-17 00:33:00,
2013-03-16 20:42:00,69.0,48.0,29.70,North,0,0.0,3.0,48,0.00,,,0.00,,2013-03-17 00:42:00,
2013-03-16 20:53:00,69.0,49.0,29.71,North,0,0.0,2.0,49,0.00,,,0.00,,2013-03-17 00:53:00,
2013-03-16 21:02:00,69.0,50.0,29.72,NE,44,1.0,4.0,50,0.00,,,0.00,,2013-03-17 01:02:00,
2013-03-16 21:12:00,69.0,50.0,29.72,NE,44,1.0,4.0,50,0.00,,,0.00,,2013-03-17 01:12:00,
2013-03-16 21:22:00,69.0,51.0,29.73,West,272,1.0,5.0,52,0.00,,,0.00,,2013-03-17 01:22:00,
2013-03-16 21:32:00,69.0,52.0,29.75,North,0,0.0,3.0,55,0.00,,,0.00,,2013-03-17 01:32:00,
2013-03-16 21:42:00,69.0,52.0,29.75,North,0,0.0,3.0,55,0.00,,,0.00,,2013-03-17 01:42:00,
2013-03-16 21:52:00,68.0,52.0,29.75,North,0,0.0,0.0,57,0.00,,,0.00,,2013-03-17 01:52:00,
2013-03-16 22:03:00,67.0,52.0,29.75,North,0,0.0,2.0,59,0.00,,,0.00,,2013-03-17 02:03:00,
2013-03-16 22:13:00,67.0,52.0,29.75,North,0,0.0,2.0,59,0.00,,,0.00,,2013-03-17 02:13:00,
2013-03-16 22:22:00,66.0,53.0,29.76,North,0,0.0,0.0,62,0.00,,,0.00,,2013-03-17 02:22:00,
2013-03-16 22:33:00,65.0,53.0,29.77,North,0,0.0,0.0,66,0.00,,,0.00,,2013-03-17 02:33:00,
2013-03-16 22:43:00,65.0,53.0,29.77,North,0,0.0,0.0,66,0.00,,,0.00,,2013-03-17 02:43:00,
2013-03-16 22:52:00,64.0,53.0,29.77,North,0,0.0,0.0,68,0.00,,,0.00,,2013-03-17 02:52:00,
2013-03-16 23:03:00,63.0,53.0,29.77,North,0,0.0,0.0,71,0.00,,,0.00,,2013-03-17 03:03:00,
2013-03-16 23:12:00,63.0,53.0,29.77,North,0,0.0,0.0,71,0.00,,,0.00,,2013-03-17 03:12:00,
2013-03-16 23:22:00,63.0,53.0,29.77,North,0,0.0,0.0,71,0.00,,,0.00,,2013-03-17 03:22:00,
2013-03-16 23:33:00,60.0,52.0,29.78,North,0,0.0,0.0,76,0.00,,,0.00,,2013-03-17 03:33:00,
2013-03-16 23:43:00,60.0,52.0,29.78,North,0,0.0,0.0,76,0.00,,,0.00,,2013-03-17 03:43:00,
2013-03-16 23:53:00,60.0,53.0,29.78,North,0,0.0,0.0,77,0.00,,,0.00,,2013-03-17 03:53:00,